Regional Weather Roundup
Issued by NWS

Home | Current Version | Previous Version | Graphics & Text | Print | Product List | Glossary On
Versions: 1 2 3 4 5 6 7 8 9 10 11 12 13 14 15 16 17 18 19 20 21 22 23 24 25 26 27
000
ASUS43 KDMX 160707
RWRIA

WEATHER ROUNDUP FOR IOWA
NATIONAL WEATHER SERVICE DES MOINES IA
200 AM CDT WED APR 16 2014

NOTE: "FAIR" INDICATES FEW OR NO CLOUDS BELOW 12,000 FEET WITH NO
SIGNIFICANT WEATHER AND/OR OBSTRUCTIONS TO VISIBILITY.

* - THESE STATIONS ARE NOT NWS STATIONS...THUS NOT UNDER NWS
QUALITY CONTROL.  THEY ALSO DO NOT REPORT WEATHER SUCH
AS PRECIPITATION OR FOG.

IAZ001>003-012>014-020>022-031>034-043>046-160800-
   NORTHWEST IOWA

CITY           SKY/WX    TMP DP  RH WIND       PRES   REMARKS
CARROLL *      CLOUDY    37  30  75 SE13      29.85F WCI  29
CHEROKEE *     MOCLDY    37  28  70 SE12      29.79F WCI  30
DENISON *      PTCLDY    43  30  61 S21G29    29.79F
LE MARS *      CLOUDY    43  30  61 SE13G21   29.73F
ORANGE CITY *  MOCLDY    37  28  70 SE10G16   29.73F WCI  30
SHELDON *      CLOUDY    37  27  65 SE21G29   29.75F WCI  27
SIOUX CITY     MOCLDY    44  31  60 SE16      29.73F
SPENCER        CLOUDY    35  25  66 SE18G28   29.83F WCI  24
STORM LAKE *   CLOUDY    37  28  70 SE21G28   29.80F WCI  27
$$

IAZ055>058-069>071-079>083-090>094-160800-
   SOUTHWEST IOWA

CITY           SKY/WX    TMP DP  RH WIND       PRES   REMARKS
ATLANTIC *     CLOUDY    45  30  57 S17G25    29.85F
AUDUBON *      CLEAR     43  28  56 S14G22    29.86S
CLARINDA *     CLEAR     45  30  57 S16G23    29.91F
COUNCIL BLFS * CLEAR     45  30  57 S20G26    29.81F
CRESTON *      PTCLDY    41  28  60 S22G29    29.90F
HARLAN  *      CLEAR     45  30  57 S20G28    29.86F
LAMONI         PTCLDY    41  28  60 S14G24    29.96F
RED OAK *      CLEAR     43  32  65 S18       29.87F
SHENANDOAH *   CLEAR     45  30  57 S17G25    29.88F
$$

IAZ047>049-059>061-072>074-084-160800-
   CENTRAL IOWA

CITY           SKY/WX    TMP DP  RH WIND       PRES   REMARKS
AMES           PTCLDY    35  25  66 SE12      29.95F WCI  27
ANKENY *       CLEAR     37  27  65 SE12G20   29.95F WCI  30
CHARITON *     CLOUDY    39  28  65 S17G24    29.97F WCI  30
DES MOINES     PTCLDY    40  27  59 SE14      29.95F WCI  32
GRINNELL*      PTCLDY    34  25  69 SE12      30.01F WCI  25
KNOXVILLE *    CLEAR     39  25  56 SE14      29.97F WCI  31
MARSHALLTOWN   MOCLDY    35  23  61 SE16      29.99F WCI  25
NEWTON *       PTCLDY    34  25  69 SE14      29.99F WCI  24
PELLA *          N/A     37  27  65 SE14      30.00F WCI  29
PERRY *          N/A     37  28  70 SE14      29.91F WCI  29
$$

IAZ004>006-015-016-023>025-035-036-160800-
   NORTH CENTRAL IOWA

CITY           SKY/WX    TMP DP  RH WIND       PRES   REMARKS
ALGONA *       CLOUDY    36  23  60 SE21G33   29.89F WCI  24
CLARION *      CLOUDY    34  23  64 SE18G26   29.94F WCI  23
ESTHERVILLE    CLOUDY    32  24  72 SE26G33   29.85F WCI  18
FORT DODGE *   MOCLDY    36  25  64 SE15G22   29.91F WCI  26
MASON CITY     PTCLDY    32  20  61 SE18      29.99F WCI  20
FOREST CITY *  MOCLDY    32  21  64 E18G26    29.95F WCI  20
IOWA FALLS *     N/A     34  25  69 E17       29.98F WCI  23
$$

IAZ007>011-017>019-026>030-037>042-050>054-066-160800-
   NORTHEAST IOWA

CITY           SKY/WX    TMP DP  RH WIND       PRES   REMARKS
CEDAR RAPIDS   PTCLDY    33  20  58 SE13      30.07F WCI  24
CHARLES CITY * CLOUDY    32  19  59 SE16      30.03F WCI  21
CLINTON *      CLEAR     30  19  64 E9        30.18F WCI  22
DECORAH *      CLOUDY    32  19  59 SE10G18   30.07F WCI  24
DUBUQUE        PTCLDY    29  20  69 SE8       30.13S WCI  21
MONTICELLO *   MOCLDY    32  19  59 E10       30.11F WCI  24
OELWEIN *      MOCLDY   N/A N/A N/A SE14      30.07F
WATERLOO       PTCLDY    33  18  53 SE14      30.04F WCI  23
$$

IAZ064-065-067-068-078-160800-
   EAST CENTRAL IOWA

CITY           SKY/WX    TMP DP  RH WIND       PRES   REMARKS
DAVENPORT      CLEAR     30  19  63 SE10      30.14F WCI  21
IOWA CITY      PTCLDY    33  22  63 SE8       30.12S WCI  26
MT. PLEASANT * CLEAR     36  23  60 SE9       30.10S WCI  29
MUSCATINE *    CLOUDY    34  23  64 SE6       30.13R WCI  29
QUAD CITIES    CLEAR     29  19  66 E6        30.15F WCI  23
$$

IAZ062-063-075>077-085>089-095>099-160800-
   SOUTHEAST IOWA

CITY           SKY/WX    TMP DP  RH WIND       PRES   REMARKS
BURLINGTON     PTCLDY    37  22  54 SE12      30.11F WCI  29
FAIRFIELD *    PTCLDY    36  23  60 SE12      30.07F WCI  27
FORT MADISON * CLEAR     37  25  60 SE9       30.12S WCI  31
KEOKUK *       PTCLDY    39  23  52 S7G15     30.10F WCI  34
OSKALOOSA *      N/A     34  27  75 SE14      30.04F WCI  24
CENTERVILLE *  CLEAR     39  27  60 SE13      30.03F WCI  32
OTTUMWA        PTCLDY    38  23  55 SE14      30.04F WCI  30
WASHINGTON *   CLOUDY    34  25  69 SE10      30.10R WCI  26
$$

ABBREVIATIONS USED IN REMARKS
   TC - TEMPERATURES IN CELSIUS
  WCI - WIND CHILL INDEX
   HX - HEAT INDEX
  VSB - VISIBILITY
$$




USA.gov is the U.S. government's official web portal to all federal, state and local government web resources and services.